Powrót do katalogu

SL-14 R/B

AktywnyLEO
NORAD 16594·ROCKET BODY·🇷🇺 Russia

Wystrzelony Feb 11, 1986 z Plesetsk Cosmodrome

Loading…

Następne Przeloty (najbliższe 24 godziny)

TLE

ŚwieżeSource: Space-Track

Epoka: Sep 14, 2026, 11:48 UTC

1 16594U 86015B   26257.49199990  .00000004  00000-0  15680-3 0  9994
2 16594  73.6113 166.9172 0027632 285.8594 247.9988 12.41504049839570

Śledź SL-14 R/B w czasie rzeczywistym z AllMySat

Download on the App Store